| time (UTC) | temp C | wind direction | speed KPH | gust KPH | rain 1hr cm | rain 24hr cm | rain mn cm | humidity % | barometer mb |
| 20260505081001 | 21 | 38 | 0.0 | 0.0 | 0.00 | 0.00 | 0.00 | 91 | 1013.6 |
| 20260505080502 | 21 | 38 | 0.0 | 0.0 | 0.00 | 0.00 | 0.00 | 90 | 1013.6 |
| 20260505080100 | 21 | 38 | 0.0 | 0.0 | 0.00 | 0.00 | 0.00 | 91 | 1013.4 |
| 20260505080007 | 21 | 38 | 0.0 | 0.0 | 0.00 | 0.00 | 0.00 | 90 | 1013.6 |
| 20260505080003 | 21 | 38 | 0.0 | 0.0 | 0.00 | 0.00 | 0.00 | 90 | 1013.3 |
| 20260505075602 | 22 | 38 | 0.0 | 0.0 | 0.00 | 0.00 | 0.00 | 90 | 1013.4 |
| 20260505075500 | 22 | 38 | 0.0 | 0.0 | 0.00 | 0.00 | 0.00 | 90 | 1013.6 |
| 20260505075159 | 22 | 38 | 0.0 | 0.0 | 0.00 | 0.00 | 0.00 | 90 | 1013.3 |
| 20260505074559 | 22 | 38 | 0.0 | 0.0 | 0.00 | 0.00 | 0.00 | 90 | 1013.3 |
| 20260505074059 | 22 | 38 | 0.0 | 0.0 | 0.00 | 0.00 | 0.00 | 90 | 1013.2 |
| 20260505074000 | 22 | 38 | 0.0 | 0.0 | 0.00 | 0.00 | 0.00 | 90 | 1013.5 |
| 20260505073559 | 22 | 38 | 0.0 | 0.0 | 0.00 | 0.00 | 0.00 | 90 | 1013.2 |
| 20260505073501 | 22 | 38 | 0.0 | 0.0 | 0.00 | 0.00 | 0.00 | 90 | 1013.5 |
| 20260505073100 | 22 | 38 | 0.0 | 0.0 | 0.00 | 0.00 | 0.00 | 90 | 1013.2 |
| 20260505072603 | 22 | 38 | 0.0 | 0.0 | 0.00 | 0.00 | 0.00 | 89 | 1013.1 |
| 20260505072501 | 22 | 38 | 0.0 | 0.0 | 0.00 | 0.00 | 0.00 | 89 | 1013.3 |
| 20260505072058 | 22 | 38 | 0.0 | 0.0 | 0.00 | 0.00 | 0.00 | 90 | 1013.0 |
| 20260505071559 | 22 | 38 | 0.0 | 0.0 | 0.00 | 0.00 | 0.00 | 89 | 1013.1 |
| 20260505071059 | 22 | 38 | 0.0 | 0.0 | 0.00 | 0.00 | 0.00 | 89 | 1013.2 |
| 20260505071000 | 22 | 38 | 0.0 | 0.0 | 0.00 | 0.00 | 0.00 | 89 | 1013.5 |
| 20260505070559 | 22 | 38 | 0.0 | 0.0 | 0.00 | 0.00 | 0.00 | 89 | 1013.2 |
| 20260505070501 | 22 | 38 | 0.0 | 0.0 | 0.00 | 0.00 | 0.00 | 88 | 1013.4 |
| 20260505070059 | 22 | 38 | 0.0 | 0.0 | 0.00 | 0.00 | 0.00 | 88 | 1013.1 |
| 20260505065559 | 22 | 38 | 0.0 | 0.0 | 0.00 | 0.00 | 0.00 | 88 | 1013.2 |
| 20260505065059 | 22 | 38 | 0.0 | 0.0 | 0.00 | 0.00 | 0.00 | 88 | 1013.2 |
| 20260505065000 | 22 | 38 | 0.0 | 0.0 | 0.00 | 0.00 | 0.00 | 88 | 1013.4 |
| 20260505064600 | 22 | 38 | 0.0 | 0.0 | 0.00 | 0.00 | 0.00 | 88 | 1013.2 |
| 20260505064501 | 22 | 38 | 0.0 | 0.0 | 0.00 | 0.00 | 0.00 | 87 | 1013.4 |
| 20260505064059 | 22 | 38 | 0.0 | 0.0 | 0.00 | 0.00 | 0.00 | 87 | 1013.2 |
| 20260505063559 | 23 | 38 | 0.0 | 0.0 | 0.00 | 0.00 | 0.00 | 87 | 1013.2 |
| 20260505063500 | 23 | 38 | 0.0 | 0.0 | 0.00 | 0.00 | 0.00 | 87 | 1013.5 |
| 20260505063059 | 23 | 38 | 0.0 | 3.2 | 0.00 | 0.00 | 0.00 | 86 | 1013.2 |
| 20260505062559 | 23 | 38 | 0.0 | 3.2 | 0.00 | 0.00 | 0.00 | 86 | 1013.2 |
| 20260505062058 | 23 | 136 | 0.0 | 3.2 | 0.00 | 0.00 | 0.00 | 85 | 1013.2 |
| 20260505062000 | 23 | 136 | 1.6 | 3.2 | 0.00 | 0.00 | 0.00 | 85 | 1013.4 |
| 20260505061607 | 23 | 136 | 0.0 | 0.0 | 0.00 | 0.00 | 0.00 | 84 | 1013.2 |
| 20260505061501 | 23 | 136 | 0.0 | 0.0 | 0.00 | 0.00 | 0.00 | 84 | 1013.5 |
| 20260505061058 | 23 | 136 | 0.0 | 0.0 | 0.00 | 0.00 | 0.00 | 85 | 1013.3 |
| 20260505060558 | 23 | 136 | 0.0 | 0.0 | 0.00 | 0.00 | 0.00 | 85 | 1013.3 |
| 20260505060459 | 23 | 136 | 0.0 | 3.2 | 0.00 | 0.00 | 0.00 | 85 | 1013.6 |
| 20260505060100 | 23 | 136 | 0.0 | 3.2 | 0.00 | 0.00 | 0.00 | 86 | 1013.4 |
| 20260505060006 | 23 | 136 | 0.0 | 3.2 | 0.00 | 0.00 | 0.00 | 86 | 1013.7 |
| 20260505055559 | 23 | 153 | 0.0 | 3.2 | 0.00 | 0.00 | 0.00 | 86 | 1013.4 |
| 20260505055508 | 23 | 32 | 0.0 | 3.2 | 0.00 | 0.00 | 0.00 | 87 | 1013.7 |
| 20260505055059 | 23 | 32 | 1.6 | 3.2 | 0.00 | 0.00 | 0.00 | 87 | 1013.5 |
| 20260505054700 | 23 | 32 | 0.0 | 1.6 | 0.00 | 0.00 | 0.00 | 87 | 1013.5 |
| 20260505054500 | 23 | 32 | 0.0 | 0.0 | 0.00 | 0.00 | 0.00 | 87 | 1013.8 |
| 20260505054100 | 23 | 32 | 0.0 | 0.0 | 0.00 | 0.00 | 0.00 | 87 | 1013.6 |
| 20260505053558 | 23 | 32 | 0.0 | 0.0 | 0.00 | 0.00 | 0.00 | 87 | 1013.6 |
| 20260505053500 | 23 | 32 | 0.0 | 0.0 | 0.00 | 0.00 | 0.00 | 87 | 1013.9 |
| 20260505053158 | 23 | 32 | 0.0 | 0.0 | 0.00 | 0.00 | 0.00 | 87 | 1013.6 |
| 20260505053000 | 23 | 32 | 0.0 | 1.6 | 0.00 | 0.00 | 0.00 | 86 | 1013.9 |
| 20260505052602 | 23 | 32 | 0.0 | 3.2 | 0.00 | 0.00 | 0.00 | 86 | 1013.7 |
| 20260505052059 | 23 | 32 | 0.0 | 3.2 | 0.00 | 0.00 | 0.00 | 86 | 1013.9 |
| 20260505052000 | 23 | 32 | 1.6 | 3.2 | 0.00 | 0.00 | 0.00 | 86 | 1014.1 |
| 20260505051559 | 23 | 32 | 0.0 | 3.2 | 0.00 | 0.00 | 0.00 | 86 | 1013.9 |
| 20260505051059 | 23 | 32 | 0.0 | 3.2 | 0.00 | 0.00 | 0.00 | 86 | 1014.0 |
| 20260505050558 | 23 | 32 | 0.0 | 4.8 | 0.00 | 0.00 | 0.00 | 85 | 1014.0 |
| 20260505050501 | 23 | 32 | 1.6 | 4.8 | 0.00 | 0.00 | 0.00 | 85 | 1014.3 |
| 20260505041559 | 23 | 92 | 0.0 | 6.4 | 0.00 | 0.00 | 0.00 | 86 | 1014.4 |
| 20260505041059 | 23 | 53 | 3.2 | 6.4 | 0.00 | 0.00 | 0.00 | 86 | 1014.5 |
| 20260505041001 | 23 | 98 | 3.2 | 6.4 | 0.00 | 0.00 | 0.00 | 86 | 1014.7 |
| 20260505040604 | 23 | 107 | 3.2 | 6.4 | 0.00 | 0.00 | 0.00 | 86 | 1014.5 |
| 20260505040104 | 23 | 25 | 3.2 | 4.8 | 0.00 | 0.00 | 0.00 | 85 | 1014.6 |
| 20260505035508 | 23 | 48 | 1.6 | 4.8 | 0.00 | 0.00 | 0.00 | 86 | 1014.6 |
| 20260505035504 | 23 | 48 | 1.6 | 4.8 | 0.00 | 0.00 | 0.00 | 86 | 1014.8 |
| 20260505035003 | 23 | 59 | 3.2 | 4.8 | 0.00 | 0.00 | 0.00 | 86 | 1015.0 |
| 20260505034501 | 23 | 43 | 1.6 | 4.8 | 0.00 | 0.00 | 0.00 | 85 | 1014.8 |
| 20260505034003 | 23 | 58 | 4.8 | 4.8 | 0.00 | 0.00 | 0.00 | 85 | 1015.0 |
| 20260505034001 | 23 | 58 | 3.2 | 4.8 | 0.00 | 0.00 | 0.00 | 85 | 1014.8 |
| 20260505033503 | 23 | 91 | 1.6 | 4.8 | 0.00 | 0.00 | 0.00 | 86 | 1015.0 |
| 20260505033003 | 23 | 104 | 1.6 | 3.2 | 0.00 | 0.00 | 0.00 | 86 | 1014.8 |
| 20260505032502 | 24 | 104 | 0.0 | 3.2 | 0.00 | 0.00 | 0.00 | 86 | 1014.8 |
| 20260505032003 | 24 | 104 | 1.6 | 3.2 | 0.00 | 0.00 | 0.00 | 86 | 1015.2 |
| 20260505032001 | 24 | 104 | 0.0 | 3.2 | 0.00 | 0.00 | 0.00 | 86 | 1014.9 |
| 20260505031601 | 24 | 104 | 1.6 | 4.8 | 0.00 | 0.00 | 0.00 | 86 | 1015.0 |
| 20260505031003 | 24 | 96 | 3.2 | 4.8 | 0.00 | 0.00 | 0.00 | 87 | 1015.3 |
| 20260505031001 | 24 | 96 | 0.0 | 4.8 | 0.00 | 0.00 | 0.00 | 87 | 1015.0 |
| 20260505030503 | 24 | 44 | 0.0 | 0.0 | 0.00 | 0.00 | 0.00 | 87 | 1015.3 |
| 20260505030006 | 24 | 44 | 0.0 | 1.6 | 0.00 | 0.00 | 0.00 | 87 | 1015.3 |
| 20260505025502 | 24 | 44 | 0.0 | 1.6 | 0.00 | 0.00 | 0.00 | 86 | 1015.3 |
| 20260505025003 | 24 | 94 | 0.0 | 0.0 | 0.00 | 0.00 | 0.00 | 87 | 1015.3 |
| 20260505024510 | 24 | 17 | 0.0 | 0.0 | 0.00 | 0.00 | 0.00 | 87 | 1015.3 |
| 20260505024503 | 24 | 17 | 0.0 | 0.0 | 0.00 | 0.00 | 0.00 | 87 | 1015.1 |
| 20260505024003 | 24 | 17 | 0.0 | 0.0 | 0.00 | 0.00 | 0.00 | 87 | 1015.0 |
| 20260505023502 | 24 | 26 | 0.0 | 3.2 | 0.00 | 0.00 | 0.00 | 87 | 1015.2 |
| 20260505023010 | 24 | 26 | 0.0 | 3.2 | 0.00 | 0.00 | 0.00 | 87 | 1015.2 |
| 20260505023001 | 24 | 26 | 0.0 | 3.2 | 0.00 | 0.00 | 0.00 | 87 | 1014.9 |
| 20260505022504 | 25 | 26 | 3.2 | 3.2 | 0.00 | 0.00 | 0.00 | 87 | 1015.2 |
| 20260505022004 | 25 | 325 | 3.2 | 3.2 | 0.00 | 0.00 | 0.00 | 87 | 1015.1 |
| 20260505022002 | 25 | 325 | 1.6 | 3.2 | 0.00 | 0.00 | 0.00 | 87 | 1014.9 |
| 20260505021601 | 25 | 325 | 1.6 | 3.2 | 0.00 | 0.00 | 0.00 | 86 | 1014.8 |
| 20260505021003 | 25 | 324 | 0.0 | 3.2 | 0.00 | 0.00 | 0.00 | 86 | 1015.0 |
| 20260505020502 | 25 | 324 | 1.6 | 3.2 | 0.00 | 0.00 | 0.00 | 85 | 1014.9 |
| 20260505020001 | 25 | 324 | 0.0 | 1.6 | 0.00 | 0.00 | 0.00 | 85 | 1014.6 |
| 20260505015502 | 25 | 324 | 0.0 | 1.6 | 0.00 | 0.00 | 0.00 | 85 | 1014.8 |
| 20260505015001 | 25 | 324 | 0.0 | 1.6 | 0.00 | 0.00 | 0.00 | 85 | 1014.6 |
| 20260505014510 | 25 | 324 | 0.0 | 3.2 | 0.00 | 0.00 | 0.00 | 85 | 1014.7 |
| 20260505014505 | 25 | 324 | 0.0 | 3.2 | 0.00 | 0.00 | 0.00 | 85 | 1014.5 |
| 20260505014004 | 25 | 324 | 0.0 | 3.2 | 0.00 | 0.00 | 0.00 | 85 | 1014.7 |
| 20260505013502 | 25 | 325 | 0.0 | 3.2 | 0.00 | 0.00 | 0.00 | 84 | 1014.4 |
| 20260505013002 | 25 | 325 | 0.0 | 0.0 | 0.00 | 0.00 | 0.00 | 84 | 1014.3 |
| 20260505012502 | 25 | 325 | 0.0 | 3.2 | 0.00 | 0.00 | 0.00 | 83 | 1014.5 |
| 20260505012003 | 25 | 325 | 1.6 | 3.2 | 0.00 | 0.00 | 0.00 | 83 | 1014.3 |
| 20260505011603 | 26 | 325 | 1.6 | 3.2 | 0.00 | 0.00 | 0.00 | 82 | 1014.1 |
| 20260505011002 | 26 | 54 | 0.0 | 1.6 | 0.00 | 0.00 | 0.00 | 82 | 1014.3 |
| 20260505010503 | 26 | 54 | 0.0 | 4.8 | 0.00 | 0.00 | 0.00 | 82 | 1014.4 |
| 20260505010501 | 26 | 54 | 0.0 | 4.8 | 0.00 | 0.00 | 0.00 | 82 | 1014.1 |
| 20260505010006 | 26 | 54 | 1.6 | 4.8 | 0.00 | 0.00 | 0.00 | 81 | 1014.2 |
| 20260505005502 | 26 | 54 | 3.2 | 4.8 | 0.00 | 0.00 | 0.00 | 80 | 1014.2 |
| 20260505005002 | 26 | 54 | 1.6 | 4.8 | 0.00 | 0.00 | 0.00 | 79 | 1014.1 |
| 20260505004602 | 26 | 74 | 1.6 | 4.8 | 0.00 | 0.00 | 0.00 | 79 | 1013.7 |
| 20260505004003 | 26 | 64 | 1.6 | 4.8 | 0.00 | 0.00 | 0.00 | 79 | 1013.7 |
| 20260505003507 | 26 | 68 | 1.6 | 4.8 | 0.00 | 0.00 | 0.00 | 78 | 1013.7 |
| 20260505003501 | 26 | 68 | 0.0 | 4.8 | 0.00 | 0.00 | 0.00 | 78 | 1014.0 |
| 20260505003104 | 27 | 81 | 1.6 | 4.8 | 0.00 | 0.00 | 0.00 | 78 | 1013.7 |
| 20260505002502 | 27 | 81 | 1.6 | 3.2 | 0.00 | 0.00 | 0.00 | 77 | 1013.7 |
| 20260505002003 | 27 | 360 | 0.0 | 4.8 | 0.00 | 0.00 | 0.00 | 76 | 1013.9 |
| 20260505001601 | 27 | 65 | 0.0 | 4.8 | 0.00 | 0.00 | 0.00 | 76 | 1013.6 |
| 20260505001002 | 27 | 360 | 1.6 | 6.4 | 0.00 | 0.00 | 0.00 | 74 | 1013.6 |
| 20260505000502 | 28 | 360 | 1.6 | 6.4 | 0.00 | 0.00 | 0.00 | 74 | 1013.8 |
| 20260505000104 | 28 | 360 | 1.6 | 6.4 | 0.00 | 0.00 | 0.00 | 73 | 1013.5 |
| 20260504235504 | 28 | 360 | 0.0 | 6.4 | 0.00 | 0.00 | 0.00 | 73 | 1013.8 |
| 20260504235005 | 28 | 360 | 4.8 | 8.0 | 0.00 | 0.00 | 0.00 | 73 | 1013.7 |
| 20260504235002 | 28 | 360 | 4.8 | 8.0 | 0.00 | 0.00 | 0.00 | 73 | 1013.5 |
| 20260504234502 | 28 | 198 | 4.8 | 8.0 | 0.00 | 0.00 | 0.00 | 72 | 1013.4 |
| 20260504234005 | 28 | 360 | 6.4 | 9.7 | 0.00 | 0.00 | 0.00 | 72 | 1013.7 |
| 20260504234003 | 28 | 360 | 4.8 | 9.7 | 0.00 | 0.00 | 0.00 | 72 | 1013.4 |
| 20260504233502 | 28 | 360 | 3.2 | 8.0 | 0.00 | 0.00 | 0.00 | 71 | 1013.4 |
| 20260504233103 | 28 | 178 | 3.2 | 8.0 | 0.00 | 0.00 | 0.00 | 71 | 1013.4 |
| 20260504232504 | 28 | 131 | 6.4 | 11.3 | 0.00 | 0.00 | 0.00 | 71 | 1013.6 |
| 20260504232502 | 28 | 131 | 4.8 | 11.3 | 0.00 | 0.00 | 0.00 | 71 | 1013.3 |
| 20260504232002 | 28 | 165 | 4.8 | 12.9 | 0.00 | 0.00 | 0.00 | 70 | 1013.4 |
| 20260504231511 | 28 | 133 | 3.2 | 12.9 | 0.00 | 0.00 | 0.00 | 70 | 1013.6 |
| 20260504231506 | 28 | 133 | 6.4 | 12.9 | 0.00 | 0.00 | 0.00 | 70 | 1013.3 |
| 20260504231003 | 28 | 360 | 8.0 | 11.3 | 0.00 | 0.00 | 0.00 | 69 | 1013.5 |
| 20260504230504 | 28 | 154 | 4.8 | 8.0 | 0.00 | 0.00 | 0.00 | 69 | 1013.6 |
| 20260504230502 | 28 | 154 | 3.2 | 8.0 | 0.00 | 0.00 | 0.00 | 69 | 1013.3 |
| 20260504230005 | 28 | 127 | 3.2 | 8.0 | 0.00 | 0.00 | 0.00 | 68 | 1013.3 |
| 20260504225504 | 29 | 121 | 3.2 | 8.0 | 0.00 | 0.00 | 0.00 | 68 | 1013.2 |
| 20260504225002 | 29 | 131 | 0.0 | 9.7 | 0.00 | 0.00 | 0.00 | 67 | 1013.5 |
| 20260504224608 | 29 | 148 | 4.8 | 12.9 | 0.00 | 0.00 | 0.00 | 67 | 1013.2 |
| 20260504224002 | 29 | 128 | 4.8 | 12.9 | 0.00 | 0.00 | 0.00 | 67 | 1013.4 |
| 20260504223504 | 29 | 127 | 4.8 | 12.9 | 0.00 | 0.00 | 0.00 | 66 | 1013.3 |
| 20260504223502 | 29 | 127 | 6.4 | 12.9 | 0.00 | 0.00 | 0.00 | 66 | 1013.0 |
| 20260504223101 | 29 | 141 | 3.2 | 14.5 | 0.00 | 0.00 | 0.00 | 66 | 1013.0 |
| 20260504222502 | 29 | 142 | 6.4 | 14.5 | 0.00 | 0.00 | 0.00 | 66 | 1013.2 |
| 20260504222500 | 29 | 142 | 4.8 | 14.5 | 0.00 | 0.00 | 0.00 | 66 | 1013.0 |
| 20260504222002 | 29 | 89 | 6.4 | 14.5 | 0.00 | 0.00 | 0.00 | 65 | 1012.9 |
| 20260504221501 | 29 | 107 | 6.4 | 12.9 | 0.00 | 0.00 | 0.00 | 66 | 1012.8 |
| 20260504221003 | 29 | 92 | 4.8 | 16.1 | 0.00 | 0.00 | 0.00 | 66 | 1013.0 |
| 20260504221001 | 29 | 92 | 4.8 | 16.1 | 0.00 | 0.00 | 0.00 | 66 | 1012.7 |
| 20260504220502 | 29 | 118 | 6.4 | 16.1 | 0.00 | 0.00 | 0.00 | 65 | 1013.0 |
| 20260504220101 | 29 | 118 | 8.0 | 16.1 | 0.00 | 0.00 | 0.00 | 65 | 1012.7 |
| 20260504215601 | 30 | 132 | 8.0 | 19.3 | 0.00 | 0.00 | 0.00 | 65 | 1012.6 |
| 20260504215502 | 30 | 131 | 6.4 | 19.3 | 0.00 | 0.00 | 0.00 | 64 | 1012.8 |
| 20260504215059 | 30 | 130 | 3.2 | 14.5 | 0.00 | 0.00 | 0.00 | 65 | 1012.5 |
| 20260504214604 | 29 | 127 | 8.0 | 16.1 | 0.00 | 0.00 | 0.00 | 65 | 1012.5 |
| 20260504214100 | 30 | 130 | 8.0 | 16.1 | 0.00 | 0.00 | 0.00 | 65 | 1012.5 |
| 20260504214000 | 30 | 104 | 4.8 | 16.1 | 0.00 | 0.00 | 0.00 | 65 | 1012.7 |
| 20260504213502 | 30 | 87 | 6.4 | 16.1 | 0.00 | 0.00 | 0.00 | 65 | 1012.7 |
| 20260504213105 | 30 | 102 | 6.4 | 12.9 | 0.00 | 0.00 | 0.00 | 64 | 1012.3 |
| 20260504213009 | 30 | 107 | 12.9 | 12.9 | 0.00 | 0.00 | 0.00 | 63 | 1012.6 |
| 20260504212559 | 30 | 123 | 6.4 | 16.1 | 0.00 | 0.00 | 0.00 | 63 | 1012.3 |
| 20260504212501 | 30 | 111 | 6.4 | 19.3 | 0.00 | 0.00 | 0.00 | 63 | 1012.6 |
| 20260504212002 | 30 | 144 | 4.8 | 19.3 | 0.00 | 0.00 | 0.00 | 63 | 1012.6 |
| 20260504211605 | 30 | 101 | 9.7 | 19.3 | 0.00 | 0.00 | 0.00 | 62 | 1012.4 |
| 20260504211059 | 30 | 147 | 8.0 | 19.3 | 0.00 | 0.00 | 0.00 | 63 | 1012.3 |
| 20260504211002 | 30 | 86 | 12.9 | 19.3 | 0.00 | 0.00 | 0.00 | 63 | 1012.5 |
| 20260504211000 | 30 | 86 | 8.0 | 19.3 | 0.00 | 0.00 | 0.00 | 63 | 1012.3 |
| 20260504210602 | 30 | 107 | 8.0 | 24.1 | 0.00 | 0.00 | 0.00 | 65 | 1012.3 |
| 20260504210502 | 30 | 131 | 4.8 | 24.1 | 0.00 | 0.00 | 0.00 | 65 | 1012.5 |
| 20260504210106 | 30 | 127 | 12.9 | 24.1 | 0.00 | 0.00 | 0.00 | 64 | 1012.3 |
| 20260504210001 | 30 | 114 | 12.9 | 24.1 | 0.00 | 0.00 | 0.00 | 64 | 1012.3 |
| 20260504205503 | 30 | 168 | 9.7 | 17.7 | 0.00 | 0.00 | 0.00 | 63 | 1012.3 |
| 20260504205002 | 31 | 98 | 9.7 | 17.7 | 0.00 | 0.00 | 0.00 | 63 | 1012.4 |
| 20260504205000 | 31 | 98 | 8.0 | 17.7 | 0.00 | 0.00 | 0.00 | 63 | 1012.2 |
| 20260504204639 | 30 | 95 | 8.0 | 17.7 | 0.00 | 0.00 | 0.00 | 63 | 1012.2 |
| 20260504204002 | 31 | 159 | 8.0 | 24.1 | 0.00 | 0.00 | 0.00 | 61 | 1012.2 |
| 20260504203502 | 31 | 134 | 4.8 | 24.1 | 0.00 | 0.00 | 0.00 | 61 | 1012.5 |
| 20260504203102 | 31 | 94 | 6.4 | 16.1 | 0.00 | 0.00 | 0.00 | 60 | 1012.2 |
| 20260504202502 | 31 | 182 | 6.4 | 19.3 | 0.00 | 0.00 | 0.00 | 59 | 1012.5 |
| 20260504202005 | 31 | 151 | 6.4 | 19.3 | 0.00 | 0.00 | 0.00 | 58 | 1012.5 |
| 20260504202003 | 31 | 151 | 8.0 | 19.3 | 0.00 | 0.00 | 0.00 | 58 | 1012.2 |
| 20260504201602 | 31 | 169 | 8.0 | 17.7 | 0.00 | 0.00 | 0.00 | 58 | 1012.3 |
| 20260504201004 | 31 | 107 | 8.0 | 19.3 | 0.00 | 0.00 | 0.00 | 58 | 1012.3 |
| 20260504200501 | 31 | 153 | 6.4 | 22.5 | 0.00 | 0.00 | 0.00 | 58 | 1012.2 |
| 20260504200009 | 31 | 162 | 11.3 | 25.7 | 0.00 | 0.00 | 0.00 | 58 | 1012.3 |
| 20260504200004 | 31 | 162 | 8.0 | 25.7 | 0.00 | 0.00 | 0.00 | 58 | 1012.5 |
| 20260504195559 | 31 | 101 | 11.3 | 25.7 | 0.00 | 0.00 | 0.00 | 57 | 1012.3 |
| 20260504195501 | 31 | 106 | 11.3 | 24.1 | 0.00 | 0.00 | 0.00 | 57 | 1012.6 |
| 20260504195200 | 31 | 204 | 6.4 | 17.7 | 0.00 | 0.00 | 0.00 | 57 | 1012.3 |
| 20260504195001 | 31 | 114 | 11.3 | 19.3 | 0.00 | 0.00 | 0.00 | 57 | 1012.6 |
| 20260504194600 | 31 | 128 | 8.0 | 24.1 | 0.00 | 0.00 | 0.00 | 56 | 1012.4 |
| 20260504194103 | 31 | 146 | 9.7 | 24.1 | 0.00 | 0.00 | 0.00 | 56 | 1012.4 |
| 20260504194001 | 31 | 127 | 11.3 | 24.1 | 0.00 | 0.00 | 0.00 | 55 | 1012.6 |
| 20260504193601 | 31 | 143 | 11.3 | 24.1 | 0.00 | 0.00 | 0.00 | 56 | 1012.5 |
| 20260504193501 | 31 | 168 | 11.3 | 24.1 | 0.00 | 0.00 | 0.00 | 55 | 1012.7 |
| 20260504193100 | 31 | 122 | 12.9 | 24.1 | 0.00 | 0.00 | 0.00 | 56 | 1012.5 |
| 20260504193008 | 31 | 167 | 14.5 | 24.1 | 0.00 | 0.00 | 0.00 | 56 | 1012.7 |
| 20260504192559 | 31 | 121 | 11.3 | 19.3 | 0.00 | 0.00 | 0.00 | 56 | 1012.5 |
| 20260504192501 | 31 | 133 | 12.9 | 24.1 | 0.00 | 0.00 | 0.00 | 56 | 1012.7 |
| 20260504192005 | 31 | 189 | 8.0 | 24.1 | 0.00 | 0.00 | 0.00 | 57 | 1012.5 |
| 20260504192003 | 31 | 189 | 11.3 | 24.1 | 0.00 | 0.00 | 0.00 | 57 | 1012.8 |
| 20260504191600 | 31 | 113 | 12.9 | 22.5 | 0.00 | 0.00 | 0.00 | 57 | 1012.6 |
| 20260504191101 | 31 | 119 | 12.9 | 20.9 | 0.00 | 0.00 | 0.00 | 58 | 1012.6 |
| 20260504191001 | 31 | 118 | 11.3 | 20.9 | 0.00 | 0.00 | 0.00 | 58 | 1012.9 |
| 20260504190702 | 31 | 157 | 9.7 | 24.1 | 0.00 | 0.00 | 0.00 | 58 | 1012.6 |
| 20260504185600 | 31 | 131 | 11.3 | 29.0 | 0.00 | 0.00 | 0.00 | 58 | 1012.5 |
| 20260504185501 | 31 | 120 | 12.9 | 29.0 | 0.00 | 0.00 | 0.00 | 58 | 1012.8 |
| 20260504185001 | 31 | 133 | 4.8 | 24.1 | 0.00 | 0.00 | 0.00 | 57 | 1012.9 |
| 20260504184606 | 31 | 140 | 12.9 | 25.7 | 0.00 | 0.00 | 0.00 | 56 | 1012.8 |
| 20260504184100 | 31 | 129 | 12.9 | 25.7 | 0.00 | 0.00 | 0.00 | 57 | 1012.8 |
| 20260504183600 | 31 | 132 | 14.5 | 25.7 | 0.00 | 0.00 | 0.00 | 57 | 1012.7 |
| 20260504183501 | 31 | 127 | 20.9 | 27.4 | 0.00 | 0.00 | 0.00 | 57 | 1013.0 |
| 20260504183102 | 31 | 124 | 12.9 | 27.4 | 0.00 | 0.00 | 0.00 | 57 | 1012.8 |
| 20260504182600 | 32 | 105 | 11.3 | 27.4 | 0.00 | 0.00 | 0.00 | 54 | 1012.8 |
| 20260504182500 | 32 | 107 | 17.7 | 25.7 | 0.00 | 0.00 | 0.00 | 55 | 1013.1 |
| 20260504182059 | 31 | 112 | 11.3 | 29.0 | 0.00 | 0.00 | 0.00 | 55 | 1012.9 |
| 20260504182001 | 31 | 102 | 9.7 | 29.0 | 0.00 | 0.00 | 0.00 | 55 | 1013.1 |
| 20260504181600 | 31 | 103 | 14.5 | 29.0 | 0.00 | 0.00 | 0.00 | 54 | 1012.8 |
| 20260504181103 | 32 | 43 | 12.9 | 25.7 | 0.00 | 0.00 | 0.00 | 53 | 1012.9 |
| 20260504181003 | 32 | 126 | 19.3 | 25.7 | 0.00 | 0.00 | 0.00 | 54 | 1013.1 |
| 20260504180601 | 32 | 146 | 16.1 | 29.0 | 0.00 | 0.00 | 0.00 | 53 | 1013.0 |
| 20260504180501 | 32 | 121 | 19.3 | 29.0 | 0.00 | 0.00 | 0.00 | 53 | 1013.2 |
| 20260504180100 | 32 | 141 | 11.3 | 29.0 | 0.00 | 0.00 | 0.00 | 53 | 1013.0 |
| 20260504175604 | 32 | 142 | 11.3 | 27.4 | 0.00 | 0.00 | 0.00 | 52 | 1013.0 |
| 20260504175501 | 32 | 117 | 22.5 | 27.4 | 0.00 | 0.00 | 0.00 | 52 | 1013.3 |
| 20260504175003 | 32 | 124 | 14.5 | 33.8 | 0.00 | 0.00 | 0.00 | 53 | 1013.3 |
| 20260504175001 | 32 | 124 | 9.7 | 33.8 | 0.00 | 0.00 | 0.00 | 53 | 1013.0 |
| 20260504174600 | 32 | 87 | 12.9 | 33.8 | 0.00 | 0.00 | 0.00 | 51 | 1013.1 |
| 20260504174101 | 32 | 113 | 12.9 | 27.4 | 0.00 | 0.00 | 0.00 | 51 | 1013.0 |
| 20260504174002 | 32 | 152 | 12.9 | 32.2 | 0.00 | 0.00 | 0.00 | 51 | 1013.1 |
| 20260504173559 | 32 | 94 | 12.9 | 32.2 | 0.00 | 0.00 | 0.00 | 51 | 1013.2 |
| 20260504173501 | 32 | 38 | 20.9 | 32.2 | 0.00 | 0.00 | 0.00 | 51 | 1013.4 |
| 20260504173102 | 32 | 69 | 14.5 | 32.2 | 0.00 | 0.00 | 0.00 | 49 | 1013.3 |
| 20260504172602 | 32 | 76 | 11.3 | 24.1 | 0.00 | 0.00 | 0.00 | 49 | 1013.3 |
| 20260504172502 | 32 | 135 | 8.0 | 25.7 | 0.00 | 0.00 | 0.00 | 49 | 1013.6 |
| 20260504172100 | 32 | 141 | 9.7 | 27.4 | 0.00 | 0.00 | 0.00 | 49 | 1013.3 |
| 20260504172002 | 32 | 169 | 17.7 | 27.4 | 0.00 | 0.00 | 0.00 | 49 | 1013.7 |
| 20260504171559 | 32 | 97 | 12.9 | 30.6 | 0.00 | 0.00 | 0.00 | 49 | 1013.4 |
| 20260504171100 | 32 | 47 | 17.7 | 30.6 | 0.00 | 0.00 | 0.00 | 48 | 1013.6 |
| 20260504171000 | 32 | 110 | 19.3 | 30.6 | 0.00 | 0.00 | 0.00 | 49 | 1013.8 |
| 20260504170659 | 32 | 126 | 12.9 | 30.6 | 0.00 | 0.00 | 0.00 | 48 | 1013.7 |
| 20260504151059 | 31 | 113 | 14.5 | 30.6 | 0.00 | 0.00 | 0.00 | 51 | 1014.1 |
| 20260504151001 | 31 | 125 | 14.5 | 30.6 | 0.00 | 0.00 | 0.00 | 52 | 1014.3 |
| 20260504150602 | 31 | 68 | 17.7 | 30.6 | 0.00 | 0.00 | 0.00 | 54 | 1014.2 |
| 20260504150502 | 31 | 113 | 24.1 | 29.0 | 0.00 | 0.00 | 0.00 | 54 | 1014.4 |
| 20260504150106 | 31 | 108 | 17.7 | 29.0 | 0.00 | 0.00 | 0.00 | 56 | 1014.1 |
| 20260504141102 | 31 | 136 | 12.9 | 30.6 | 0.00 | 0.00 | 0.00 | 56 | 1014.4 |
| 20260504141001 | 31 | 119 | 8.0 | 30.6 | 0.00 | 0.00 | 0.00 | 56 | 1014.6 |
| 20260504140659 | 30 | 127 | 19.3 | 30.6 | 0.00 | 0.00 | 0.00 | 55 | 1014.4 |
| 20260504130603 | 29 | 44 | 12.9 | 27.4 | 0.00 | 0.00 | 0.00 | 64 | 1014.2 |
| 20260504130501 | 29 | 119 | 12.9 | 27.4 | 0.00 | 0.00 | 0.00 | 64 | 1014.4 |
| 20260504110600 | 22 | 51 | 0.0 | 0.0 | 0.00 | 0.00 | 0.00 | 86 | 1014.4 |
| 20260504110502 | 22 | 46 | 0.0 | 0.0 | 0.00 | 0.00 | 0.00 | 86 | 1014.6 |
| 20260504100602 | 21 | 80 | 0.0 | 0.0 | 0.00 | 0.00 | 0.00 | 91 | 1014.0 |
| 20260504100501 | 21 | 80 | 0.0 | 0.0 | 0.00 | 0.00 | 0.00 | 92 | 1014.2 |
| 20260504082001 | 21 | 80 | 0.0 | 0.0 | 0.00 | 0.00 | 0.00 | 91 | 1013.6 |
| 20260504081601 | 21 | 80 | 0.0 | 0.0 | 0.00 | 0.00 | 0.00 | 90 | 1013.5 |
| 20260504081503 | 21 | 80 | 0.0 | 0.0 | 0.00 | 0.00 | 0.00 | 90 | 1013.7 |
| 20260504081100 | 21 | 80 | 0.0 | 0.0 | 0.00 | 0.00 | 0.00 | 91 | 1013.4 |